OBJECT F, 100656

Orbit data source: Space-Track

You're viewing an uncataloged RSO

Recently launched and/or uncataloged RSOs may have evolving metadata. Metadata may include the following, but is not limited to: Owner, Manufacturer, Bus, Motor, and Mission.

OBJECT F, 100656 is a Chinese satellite in LEO that was launched on Thu, 10 Sep 2026 UTC launched from the Jiuquan Satellite Launch Center, China (JSC). Unknown objects in Earth's orbit typically refer to objects detected orbiting the Earth but have not yet been identified or cataloged. These objects could be anything from previously untracked satellites, spent rocket stages, debris from satellite collisions, or even natural meteoroids temporarily captured by Earth's gravity.

Loading next visibility...
Identifier
100656, 2026-205F
Orbit
LEO
Country
Flag of CNCN / PRC
Related business
None
Manufacturer
Unknown
Mission
Operational spacecraft
Bus & Motor
Unknown
Mass
Unknown
Launch date (UTC)
2026-09-10 (3 days ago)
Launch vehicle
Unknown
Launch site
Jiuquan Satellite Launch Center, China (JSC)
Object type
Unknown
Shape & HBR
Unknown
Radar Cross Section
RCS unknown

Expand to show TLE details & history
Last TLE update: 6 hours ago

TLE from 6 hours ago
0 OBJECT F
1 A0656U 26205F   26255.92833920  .00007699  00000-0  40560-3 0  9997
2 A0656  44.9926  94.5776 0007943 286.8731  73.1276 15.16118698   371
Epoch: 2026-09-12T22:16Z
TLE epoch observation values (Epoch: 2026-09-12T22:16:48.506Z)
Latitude
-0.00006°
Longitude
128.44513°
Altitude
515.997 km
Speed
7.608 km/s
True Right ascension
06h 18m 18s
True Declination
0° 00' 00"
Sunlit
Object was in daylight at epoch
Visualization orbit readout
Latitude
Unknown
Longitude
Unknown
Altitude
Unknown
Speed
Unknown
Apparent Right ascension
Unknown
Apparent Declination
Unknown
Sunlit
N/A
Visualization observer readout
Local Sidereal Time
20:48:28
Azimuth
Unknown
Elevation
Unknown
Doppler factor
Unknown
Orbital elements
Apogee altitude
524.665 km
Perigee altitude
513.708 km
Semi-major axis
6,897.324 km
Eccentricity
0.00079
Inclination
44.9926°
RAAN
94.5776°
Arg. of periapsis
286.8731°
True anomaly
73.21473°
Mean anomaly
73.1276°
Eccentric anomaly
73.17116°
Mean motion
3.78898 °/min
Orbital period
95.01 mins
BSTAR
0.0004056
Loading maneuver chart data...
Computing Atmospheric mass density...
Loading historical data...
Loading historical data...
Loading historical data...
Loading historical data...
Loading historical data...
Loading historical data...
Loading historical data...
Other satellites on launch #205 in the year 2026 (2026-09-10 UTC)

Documentation

Showing up to 5 results
|